Regional Weather Roundup
Issued by NWS New Orleans/Baton Rouge, LA

Home | Current Version | Previous Version | Graphics & Text | Print | Product List | Glossary On
Versions: 1 2 3 4 5 6 7 8 9 10 11 12 13 14 15 16 17 18 19 20 21 22 23 24 25 26 27 28 29 30 31 32 33 34 35 36 37 38 39 40 41 42 43 44 45 46 47 48 49 50
319
ASUS44 KLIX 201701
RWRLIX
NEW ORLEANS REGIONAL WEATHER ROUNDUP
NATIONAL WEATHER SERVICE NEW ORLEANS LA
1100 AM CST SAT DEC 20 2014

NOTE: "FAIR" INDICATES FEW OR NO CLOUDS BELOW 12,000 FEET WITH NO
      SIGNIFICANT WEATHER AND/OR OBSTRUCTIONS TO VISIBILITY.
      SKY/WX - SKY CONDITION AND SIGNIFICANT WEATHER.
      TMP - AIR TEMPERATURE.     DP    - DEWPOINT TEMPERATURE.
      RH  - RELATIVE HUMIDITY.   PRES  - PRESSURE.
      HI  - HEAT INDEX.          WCI   - WIND CHILL INDEX.

*  THESE STATIONS ARE NOT NWS OR FAA STATIONS AND ARE NOT UNDER
   NWS QUALITY CONTROL.

LAZ038-040-048-061>063-065>067-069-201800-
SOUTHEAST LOUISIANA

CITY           SKY/WX    TMP DP  RH WIND       PRES   REMARKS
N.O. AUDUBON     N/A     55  50  82 MISG        N/A
N.O. INTL ARPT CLOUDY    52  48  86 N15       30.16S
N.O. LAKEFRONT CLOUDY    54  48  80 NE14      30.17S
N.O. DOWNTOWN* CLOUDY    54  45  71 N8        30.16F
SLIDELL        CLOUDY    52  47  83 N12       30.16S
BATON ROUGE    CLOUDY    50  46  86 N5        30.19S
BOOTHVILLE     CLOUDY    56  53  90 NE12G21   30.13S
BELLE CHASSE   PTSUNNY   55  50  83 NE12G18   30.14F
BOGALUSA*        N/A     51  46  83 NE8       30.20S
GALLIANO*      NOT AVBL
NEW ROADS*     NOT AVBL
GONZALES*      NOT AVBL
HAMMOND*       NOT AVBL
HOUMA*         CLOUDY    54  52  94 NE14      30.14F
PORT FOURCHON* CLOUDY    55  52  88 N15       30.16S

$$

MSZ070-080>082-201800-
SOUTHERN MISSISSIPPI

CITY           SKY/WX    TMP DP  RH WIND       PRES   REMARKS
MCCOMB         CLOUDY    47  44  90 N7        30.20S FOG
GULFPORT       CLOUDY    51  47  86 N13       30.15S
BILOXI         CLOUDY    51  50  97 NE12      30.15S
PASCAGOULA     CLOUDY    51  49  92 NE10      30.15S
STENNIS ARPT*  CLOUDY    52  45  76 N12       30.16F

$$

COASTAL OBSERVATIONS
LAKE AND NEARSHORE STATIONS

STATION/POSITION TIME  TEMP    WIND        PRES    WAVE
                       AIR SEA DIR/SP/G            HT/PER
                 (UTC) (F)     (DEG/KT/KT) (MB)    (FT/S)
PASCAGOULA       1600   51      30/ 10/ 13 1020.3
WAVELAND YACHT   1600   50      20/ 10/ 15 1020.3
GRAND ISLE       1600   54 61   40/ 12/ 18 1020.7
SOUTHWEST PASS   1600   58                 1019.7
NEW CANAL        1600   51 56   20/ 12/ 14 1021.7
SHELL BEACH      1600   52 58   30/ 16/ 19 1020.9

OFFSHORE STATIONS

STATION/POSITION TIME  TEMP    WIND        PRES    WAVE
                       AIR SEA DIR/SP/G            HT/PER
                 (UTC) (F)     (DEG/KT/KT) (MB)    (FT/S)
64 S DAUPHIN ISL 1700   62 74   40/ 27/ 31 1017.7    8/ 7

$$




USA.gov is the U.S. government's official web portal to all federal, state and local government web resources and services.